This is the latest recevied weather packets stored in our database for station/object KK6LZB. If no packets are shown the sender has not sent any weather packets the latest 10 day(s).
| Time | Temp. | Humidity | Pressure | Rain* | Wind** | Luminosity | Snow |
|---|---|---|---|---|---|---|---|
| 1778166057 | 14.44° C | 93% | 1018.7 hPa | 0 mm | - | 35 W/m² | - |
| 1778165752 | 14.44° C | 93% | 1018.8 hPa | 0 mm | - | 33 W/m² | - |
| 1778165450 | 14.44° C | 94% | 1018.6 hPa | 0 mm | - | 33 W/m² | - |
| 1778165146 | 13.89° C | 95% | 1018.7 hPa | 0 mm | - | 32 W/m² | - |
| 1778164845 | 13.89° C | 96% | 1018.6 hPa | 0 mm | - | 31 W/m² | - |
| 1778164541 | 13.89° C | 97% | 1018.6 hPa | 0 mm | - | 30 W/m² | - |
| 1778164239 | 13.33° C | 97% | 1018.6 hPa | 0 mm | - | 29 W/m² | - |
| 1778163939 | 13.33° C | 97% | 1018.5 hPa | 0 mm | - | 28 W/m² | - |
| 1778163636 | 12.78° C | 98% | 1018.5 hPa | 0 mm | - | 27 W/m² | - |
| 1778163332 | 12.78° C | 98% | 1018.5 hPa | 0 mm | - | 26 W/m² | - |
| 1778163029 | 12.78° C | 98% | 1018.3 hPa | 0 mm | - | 25 W/m² | - |
| 1778162726 | 12.78° C | 98% | 1018.3 hPa | 0 mm | - | 24 W/m² | - |
| 1778162424 | 12.78° C | 98% | 1018.2 hPa | 0 mm | - | 28 W/m² | - |
| 1778162120 | 12.78° C | 99% | 1018.2 hPa | 0 mm | - | 35 W/m² | - |
| 1778161818 | 12.78° C | 99% | 1018.2 hPa | 0 mm | - | 21 W/m² | - |
| 1778161514 | 11.67° C | 99% | 1018.1 hPa | 0 mm | - | 19 W/m² | - |
| 1778161210 | 11.11° C | 99% | 1018.2 hPa | 0 mm | - | 17 W/m² | - |
| 1778160906 | 11.11° C | 99% | 1018 hPa | 0 mm | - | 15 W/m² | - |
| 1778160605 | 11.11° C | 99% | 1017.9 hPa | 0 mm | - | 13 W/m² | - |
| 1778160301 | 11.11° C | 99% | 1017.8 hPa | 0 mm | - | 12 W/m² | - |
| 1778159997 | 11.11° C | 99% | 1017.9 hPa | 0 mm | - | 10 W/m² | - |
| 1778159694 | 11.11° C | 99% | 1017.8 hPa | 0 mm | - | 8 W/m² | - |
| 1778159391 | 11.11° C | 99% | 1017.8 hPa | 0 mm | - | 6 W/m² | - |
| 1778159088 | 10.56° C | 98% | 1017.8 hPa | 0 mm | - | 4 W/m² | - |
| 1778158787 | 10.56° C | 98% | 1018 hPa | 0 mm | - | 2 W/m² | - |
* Rain latest hour (hover to see other rain measurements)
** Current wind speed in m/s (hover to see current wind gust speed)